Location: ????
(32.1228°N, 34.8377°E)
Time: 01:32:03
(UTC+00:00)

X-37B - Pass Details

Date: 21 September 2020
Orbit: 382 x 392 km, 45.0° (Epoch: 15 October)

Event Time Altitude Azimuth Distance (km) Brightness Sun altitude
Exits shadow 02:09:46 - 338° (NNW) 1,580 3.6 -17.3°
Reaches altitude 10° 02:10:38 10° 351° (N) 1,401 3.4 -17.2°
Maximum altitude 02:11:57 12° 16° (NNE) 1,286 3.5 -16.9°
Drops below altitude 10° 02:13:17 10° 41° (NE) 1,401 4.2 -16.6°
Sets 02:16:23 0° 74° (ENE) 2,256 6.3 -16.0°
